Thayer, KS

11:17 PM CST on February 23, 2017 (GMT -0600)
Tri-City

Weather History for KPPF - January, 2013

Change the Weather History Date:

Wednesday, January 9, 2013

  Actual Average Record
Temperature  
Mean Temperature 44 °F -  
Max Temperature 55 °F 38 °F 62 °F (1963)
Min Temperature 33 °F 19 °F -6 °F (1988)
Degree Days  
Heating Degree Days 21    
Moisture  
Dew Point 35 °F    
Average Humidity 75    
Maximum Humidity 100    
Minimum Humidity 45    
Precipitation  
Precipitation 0.00 in - - ()
Sea Level Pressure  
Sea Level Pressure 30.31 in    
Wind  
Wind Speed 2 mph (NE)    
Max Wind Speed 10 mph    
Max Gust Speed 18 mph    
Visibility 6 miles    
Events Fog    
Averages and records for this station are not official NWS values.
T = Trace of Precipitation, MM = Missing Value Source: NWS Daily Summary

Daily Weather History Graph

Daily Weather History Graph

Search for Another Location

Airport or City:

Trip Planner

Search our weather history database for the weather conditions in past years. The results will help you decide how hot, cold, wet, or windy it might be!

Date:

Astronomy

Jan. 09, 2013 Rise Set
Actual Time 7:36 AM CST 5:22 PM CST
Civil Twilight 7:07 AM CST 5:51 PM CST
Nautical Twilight 6:35 AM CST 6:23 PM CST
Astronomical Twilight 6:03 AM CST 6:55 PM CST
Moon 5:16 AM CST (1/9) 3:25 PM CST (1/9)
Length of Visible Light 10h 43m
Length of Day
9h 46m
Waning Crescent, 6% of the Moon is Illuminated
Jan 9
Waning Crescent
Jan 11
New
Jan 18
First Quarter
Jan 26
Full
Feb 3
Last Quarter

Hourly Weather History & Observations

Time (CST) Temp. Windchill Dew Point Humidity Pressure Visibility Wind Dir Wind Speed Gust Speed Precip Events Conditions
12:52 AM 35.1 °F - 34.0 °F 96% 30.25 in 0.2 mi Calm Calm - N/A Fog Fog
1:52 AM 36.0 °F - 35.1 °F 97% 30.26 in 0.2 mi Calm Calm - N/A Fog Fog
2:52 AM 37.9 °F - 37.0 °F 97% 30.26 in 0.2 mi Calm Calm - N/A Fog Fog
3:52 AM 39.0 °F - 37.9 °F 96% 30.27 in 0.2 mi Calm Calm - N/A Fog Fog
4:16 AM 37.4 °F - 35.6 °F 93% 30.27 in 1.2 mi Calm Calm - N/A   Overcast
4:25 AM 37.4 °F - 35.6 °F 93% 30.26 in 0.8 mi Calm Calm - N/A   Mist
4:52 AM 36.0 °F - 34.0 °F 93% 30.27 in 0.2 mi Calm Calm - N/A Fog Fog
5:52 AM 35.1 °F - 35.1 °F 100% 30.30 in 0.5 mi Calm Calm - N/A Fog Fog
6:52 AM 35.1 °F 31.0 °F 34.0 °F 96% 30.31 in 1.0 mi NNE 4.6 mph - N/A   Mist
7:03 AM 35.6 °F 32.8 °F 33.8 °F 93% 30.31 in 1.5 mi NNE 3.5 mph - N/A   Overcast
7:08 AM 35.6 °F 32.8 °F 33.8 °F 93% 30.31 in 3.0 mi NNE 3.5 mph - N/A   Mostly Cloudy
7:21 AM 33.8 °F - 33.8 °F 100% 30.32 in 7.0 mi Calm Calm - N/A   Scattered Clouds
7:52 AM 35.1 °F - 33.1 °F 92% 30.35 in 9.0 mi Calm Calm - N/A   Clear
8:52 AM 37.9 °F 34.4 °F 35.1 °F 89% 30.38 in 10.0 mi ENE 4.6 mph - N/A   Clear
9:52 AM 39.9 °F 36.7 °F 36.0 °F 86% 30.40 in 10.0 mi NNE 4.6 mph - N/A   Mostly Cloudy
10:52 AM 44.1 °F 41.5 °F 35.1 °F 71% 30.40 in 10.0 mi ENE 4.6 mph - N/A   Mostly Cloudy
12:52 PM 51.1 °F - 36.0 °F 56% 30.37 in 10.0 mi Variable 5.8 mph - N/A   Overcast
1:52 PM 55.0 °F - 36.0 °F 49% 30.35 in 10.0 mi ENE 10.4 mph - N/A   Mostly Cloudy
2:52 PM 55.9 °F - 35.1 °F 45% 30.33 in 10.0 mi NE 9.2 mph - N/A   Clear
3:52 PM 55.0 °F - 35.1 °F 47% 30.34 in 10.0 mi NE 5.8 mph - N/A   Clear
4:52 PM 53.1 °F - 35.1 °F 50% 30.33 in 10.0 mi NE 4.6 mph - N/A   Clear
5:52 PM 50.0 °F - 34.0 °F 54% 30.34 in 10.0 mi NNE 3.5 mph - N/A   Clear
6:52 PM 48.9 °F - 36.0 °F 61% 30.33 in 10.0 mi NE 5.8 mph - N/A   Clear
7:52 PM 50.0 °F - 36.0 °F 59% 30.33 in 10.0 mi Variable 5.8 mph - N/A   Clear
8:52 PM 50.0 °F - 34.0 °F 54% 30.32 in 10.0 mi ENE 8.1 mph - N/A   Clear
9:52 PM 48.9 °F - 32.0 °F 52% 30.29 in 10.0 mi ENE 6.9 mph - N/A   Mostly Cloudy
10:52 PM 51.1 °F - 32.0 °F 48% 30.27 in 10.0 mi Variable 6.9 mph 17.3 mph N/A   Overcast
11:52 PM 51.1 °F - 30.9 °F 46% 30.24 in 10.0 mi ENE 10.4 mph 18.4 mph N/A   Overcast